LiveATC.Net - Listen to live air traffic control over the Internet! Contact LiveATC.net for advertising information


ICAO: KGMU  IATA: GMU   Airport: Greenville Downtown Airport
City: Greenville   State/Province: South Carolina
Country: United States   Continent: North America
KGMU METAR Weather: KGMU 271753Z 03007KT 10SM BKN070 21/04 A2985 RMK AO2 SLP102 T02060039 10211 20128 58015
KGMU Flight Activity (FlightAware)
KGMU Airport Info   (AirNav) (iFlightPlanner)
KGMU Tower
Feed Status: DOWN
Last heard on: 2015-04-04 01:33:03 (23 days 17 hours 6 minutes ago)
KGMU Tower Audio Archives
FacilityFrequency
Greenville Tower119.900


NOTICE

Unauthorized use prohibited. See LiveATC.net Terms of Service


Find LiveATC Audio Streams


Airport/ARTCC Code

Frequency
(e.g., 124.400, 128.75)
Site-wide search

Browse LiveATC Feeds
LiveATC Coverage Map
Top 50 LiveATC Feeds
Bad Weather Areas

LiveATC FAQ
Offer a LiveATC Feed
Contact LiveATC.net
Press Inquiries

LiveATC on iPhone
LiveATC on Android

LiveATC Mobile
(Mobile browser)

ATC Audio Archives
Interesting Recordings

LiveATC Forums


Home Page
About LiveATC.net
Make a Donation
LiveATC Bookstore

Terms of Use
Privacy Policy

ATC/Radar Sites
U.S. ARTCC Freqs
Canadian Air Freqs

AIRMETs/SIGMETs

FAA Airport Status
Nat'l Airspace Status
Arrival Demand Charts


Server Software By:
Icecast.org
Liquidsoap

Please make a donation to help us keep growing!